Miscellaneous Local Product
Issued by NWS North Platte, NE

Home | Current Version | Previous Version | Text Only | Print | Product List | Glossary On
Versions: 1 2 3 4 5 6 7 8 9 10 11 12 13 14 15 16 17 18 19 20 21 22 23 24 25 26 27 28 29 30 31 32 33 34 35 36 37 38 39 40 41 42 43 44 45 46 47 48 49 50
000
AXUS43 KLBF 280310
MISLBF


WESTERN AND NORTH CENTRAL NEBRASKA HOURLY WEATHER ROUNDUP
NATIONAL WEATHER SERVICE NORTH PLATTE NE
1000 PM CDT SAT AUG 27 2016

NOTE: "FAIR" INDICATES FEW OR NO CLOUDS BELOW 12,000 FEET WITH NO
SIGNIFICANT WEATHER AND/OR OBSTRUCTIONS TO VISIBILITY.

NOTE: STATIONS NOT REPORTING VARIABLES SUCH AS SKY/WEATHER OR
PRESSURE ARE PROVIDED BY RAWS AND APRS NETWORKS AND ARE NOT UNDER
NATIONAL WEATHER SERVICE QUALITY CONTROL.

...OBSERVATIONS IN AND NEAR THE EASTERN PANHANDLE OF NEBRASKA...

CITY           SKY/WX    TMP DP  RH WIND       PRES   REMARKS
PINE RIDGE     CLEAR     73  52  47 S9        29.94R
CHADRON        CLEAR     73  52  47 S9        29.93R
ALLIANCE       CLEAR     64  54  69 S10       30.00R
SIDNEY         CLEAR     66  55  67 SE10      30.06R
CRESCENT LAKE    N/A     68  57  68 S6          N/A
$$

...OBSERVATIONS IN NORTHERN NEBRASKA AND FAR SOUTHERN SOUTH DAKOTA...

CITY           SKY/WX    TMP DP  RH WIND       PRES   REMARKS
WINNER         FAIR      73  62  68 S8        29.93R
VALENTINE      CLEAR     67  58  72 S7        29.96R
THEDFORD       CLEAR     73  64  72 S10       30.02R
AINSWORTH      CLEAR     72  63  72 S12       29.99R
O`NEILL        CLEAR     73  61  66 SE9       30.01R
ORD            CLEAR     72  61  68 S6        30.01R
BROKEN BOW     CLEAR     69  64  84 S7        30.03R
VALENTINE NWR    N/A     71  58  64 S5          N/A
BUTTE            N/A     72  64  76 SE12        N/A
HALSEY           N/A     74  61  64 S8G16       N/A
EWING            N/A     69  65  88 CALM        N/A
$$

...OBSERVATIONS IN SOUTHWEST NEBRASKA AND FAR NORTHEAST COLORADO...

CITY           SKY/WX    TMP DP  RH WIND       PRES   REMARKS
WRAY           FAIR      70  59  68 E6        30.05R
HOLYOKE        FAIR      66  59  77 SE6       30.05R
IMPERIAL       CLEAR     68  61  78 SE8       30.04R
OGALLALA       CLEAR     69  59  69 E3        30.03R
NORTH PLATTE   CLEAR     68  63  84 E7        30.03R
MCCOOK         CLOUDY    72  65  78 E8        30.02R
LEXINGTON      CLOUDY    71  64  79 SE7       30.04R
STAPLETON        N/A     68  63  84 CALM        N/A
GOTHENBURG       N/A     71  62  74 E3          N/A
CALLAWAY         N/A     67  64  89 S7          N/A
$$

...OBSERVATIONS IN CENTRAL LINCOLN COUNTY AREA...

CITY           SKY/WX    TMP DP  RH WIND       PRES   REMARKS
N.P. AIRPORT   CLEAR     68  63  84 E7        30.03R
N.P. DOWNTOWN    N/A     73  65  76 CALM        N/A
N.P. SOUTHEAST   N/A     72  65  77 CALM        N/A
N.P. HILLCREST   N/A     72  65  77 SE9         N/A
$$

...SOME OBSERVATIONS FROM AROUND THE REGION...

CITY           SKY/WX    TMP DP  RH WIND       PRES   REMARKS
DENVER         MOCLDY    65  40  39 S9        30.10R
LARAMIE        CLOUDY    57  28  33 W9        30.21R
CHEYENNE       CLOUDY    63  41  44 SW8       30.14R
SCOTTSBLUFF    CLEAR     66  53  63 SE9       30.00R
RAPID CITY     MOCLDY    65  52  62 E7        29.92R
BISMARCK       CLEAR     63  52  67 SE5       29.90R
PIERRE         CLEAR     73  58  59 E13       29.89R
SIOUX FALLS    PTCLDY    71  65  81 S7        30.02R
OMAHA          CLEAR     75  67  76 SE7       30.04R
GRAND ISLAND   CLOUDY    71  65  81 S5        30.04R
KANSAS CITY    PTCLDY    73  69  87 E3        30.05R
WICHITA        PTCLDY    80  70  71 SE8       30.02R
OKLAHOMA CITY  CLOUDY    77  68  73 CALM      30.03R
DALLAS         PTCLDY    83  70  64 SE8       29.99R
AMARILLO       CLEAR     73  65  75 SE17      30.09R
DODGE CITY     CLOUDY    71  60  68 S6        30.04R
HAYS           PTCLDY    73  61  64 SE9       30.02R
GOODLAND       CLOUDY    70  59  68 S10       30.05R
$$




USA.gov is the U.S. government's official web portal to all federal, state and local government web resources and services.